Siemreap, Cambodia

5:46 AM +07 on January 24, 2018 (GMT +0700)
Siem Reap

Weather History for VDSR - November, 2014

Change the Weather History Date:

Sunday, November 23, 2014

  Actual Average Record
Temperature  
Mean Temperature 86 °F -  
Max Temperature 91 °F - - ()
Min Temperature 80 °F - - ()
Cooling Degree Days 20    
Growing Degree Days 36 (Base 50)    
Moisture  
Dew Point 74 °F    
Average Humidity 73    
Maximum Humidity 94    
Minimum Humidity 49    
Precipitation  
Precipitation 0.00 in - - ()
Sea Level Pressure  
Sea Level Pressure 29.83 in    
Wind  
Wind Speed 3 mph ()    
Max Wind Speed 8 mph    
Max Gust Speed -    
Visibility 6.0 miles    
Events      
T = Trace of Precipitation, MM = Missing Value Source: Averaged Metar Reports

Daily Weather History Graph

Daily Weather History Graph

Search for Another Location

Airport or City:

Trip Planner

Search our weather history database for the weather conditions in past years. The results will help you decide how hot, cold, wet, or windy it might be!

Date:

Astronomy

Nov. 23, 2014 Rise Set
Actual Time 6:07 AM +07 5:34 PM +07
Civil Twilight 5:44 AM +07 5:57 PM +07
Nautical Twilight 5:18 AM +07 6:23 PM +07
Astronomical Twilight 4:52 AM +07 6:49 PM +07
Moon 6:35 AM +07 6:25 PM +07
Length of Visible Light 12h 12m
Length of Day
11h 27m
New Moon, 1% of the Moon is Illuminated
Nov 23
New Moon
Nov 29
First Quarter
Dec 6
Full
Dec 14
Last Quarter
Dec 22
New

Hourly Weather History & Observations

Time (+07) Temp. Heat Index Dew Point Humidity Pressure Visibility Wind Dir Wind Speed Gust Speed Precip Events Conditions
12:30 AM 80.6 °F 85.4 °F 73.4 °F 79% 29.83 in 5.6 mi Calm Calm - N/A   Unknown
1:00 AM 80.6 °F 85.4 °F 73.4 °F 79% 29.83 in 5.6 mi Calm Calm - N/A   Unknown
7:00 AM 80.6 °F 85.4 °F 73.4 °F 79% 29.86 in 5.6 mi Calm Calm - N/A   Mostly Cloudy
7:30 AM 80.6 °F 86.2 °F 75.2 °F 84% 29.86 in 6.2 mi North 3.5 mph - N/A   Mostly Cloudy
8:00 AM 80.6 °F 86.2 °F 75.2 °F 84% 29.86 in 6.2 mi ESE 3.5 mph - N/A   Mostly Cloudy
8:30 AM 84.2 °F 92.3 °F 75.2 °F 74% 29.89 in 6.2 mi East 3.5 mph - N/A   Scattered Clouds
9:00 AM 86.0 °F 93.4 °F 73.4 °F 66% 29.89 in 6.2 mi ESE 5.8 mph - N/A   Scattered Clouds
9:30 AM 86.0 °F 91.8 °F 71.6 °F 62% 29.89 in 6.2 mi East 5.8 mph - N/A   Scattered Clouds
10:00 AM 86.0 °F 93.4 °F 73.4 °F 66% 29.89 in 6.2 mi ESE 8.1 mph - N/A   Scattered Clouds
10:30 AM 87.8 °F 95.6 °F 73.4 °F 62% 29.89 in 6.2 mi ESE 8.1 mph - N/A   Scattered Clouds
11:00 AM 89.6 °F 98.2 °F 73.4 °F 59% 29.86 in 6.2 mi East 8.1 mph - N/A   Scattered Clouds
11:30 AM 89.6 °F 96.2 °F 71.6 °F 55% 29.86 in 6.2 mi NNW 5.8 mph - N/A   Scattered Clouds
12:00 PM 89.6 °F 94.7 °F 69.8 °F 52% 29.86 in 6.2 mi East 8.1 mph - N/A   Scattered Clouds
12:30 PM 91.4 °F 96.8 °F 69.8 °F 49% 29.83 in 6.2 mi North 8.1 mph - N/A   Mostly Cloudy
1:00 PM 87.8 °F 93.8 °F 71.6 °F 58% 29.83 in 6.2 mi North 8.1 mph - N/A   Mostly Cloudy
1:30 PM 86.0 °F 91.8 °F 71.6 °F 62% 29.80 in 6.2 mi WNW 2.3 mph - N/A   Mostly Cloudy
2:00 PM 84.2 °F 90.9 °F 73.4 °F 70% 29.80 in 6.2 mi SSW 6.9 mph - N/A   Mostly Cloudy
2:30 PM 82.4 °F 88.2 °F 73.4 °F 74% 29.80 in 6.2 mi SSW 6.9 mph - N/A   Mostly Cloudy
3:00 PM 84.2 °F 92.3 °F 75.2 °F 74% 29.80 in 6.2 mi SSW 6.9 mph - N/A   Mostly Cloudy
3:30 PM 84.2 °F 92.3 °F 75.2 °F 74% 29.77 in 6.2 mi SSW 3.5 mph - N/A   Scattered Clouds
4:00 PM 86.0 °F 93.4 °F 73.4 °F 66% 29.77 in 6.2 mi SSW 3.5 mph - N/A   Scattered Clouds
4:30 PM 86.0 °F 93.4 °F 73.4 °F 66% 29.77 in 6.2 mi SW 2.3 mph - N/A   Scattered Clouds
5:00 PM 86.0 °F 93.4 °F 73.4 °F 66% 29.77 in 6.2 mi WSW 3.5 mph - N/A   Scattered Clouds
5:30 PM 86.0 °F 93.4 °F 73.4 °F 66% 29.77 in 6.2 mi West 2.3 mph - N/A   Mostly Cloudy
6:00 PM 84.2 °F 90.9 °F 73.4 °F 70% 29.77 in 5.6 mi West 2.3 mph - N/A   Mostly Cloudy
6:30 PM 84.2 °F 90.9 °F 73.4 °F 70% 29.77 in 6.2 mi West 1.2 mph - N/A   Scattered Clouds
7:00 PM 84.2 °F 92.3 °F 75.2 °F 74% 29.80 in 6.2 mi WSW 1.2 mph - N/A   Scattered Clouds
7:30 PM 82.4 °F 89.5 °F 75.2 °F 79% 29.80 in 5.6 mi SSE 1.2 mph - N/A   Scattered Clouds
8:00 PM 82.4 °F 90.9 °F 77.0 °F 84% 29.80 in 5.6 mi SE 1.2 mph - N/A   Scattered Clouds
8:30 PM 82.4 °F 90.9 °F 77.0 °F 84% 29.83 in 5.6 mi Variable 1.2 mph - N/A   Scattered Clouds
9:00 PM 82.4 °F 90.9 °F 77.0 °F 84% 29.83 in 5.6 mi Variable 1.2 mph - N/A   Scattered Clouds
9:30 PM 82.4 °F 90.9 °F 77.0 °F 84% 29.83 in 5.6 mi Calm Calm - N/A   Scattered Clouds
10:00 PM 80.6 °F 87.1 °F 77.0 °F 89% 29.83 in 5.6 mi Calm Calm - N/A   Scattered Clouds
10:30 PM 80.6 °F 88.1 °F 78.8 °F 94% 29.83 in 5.6 mi Calm Calm - N/A   Scattered Clouds
11:00 PM 80.6 °F 87.1 °F 77.0 °F 89% 29.83 in 5.6 mi NNE 1.2 mph - N/A   Scattered Clouds
11:30 PM 80.6 °F 88.1 °F 78.8 °F 94% 29.83 in 5.6 mi Calm Calm - N/A   Scattered Clouds